Regional Weather Roundup
Issued by NWS Goodland, KS

Home | Current Version | Previous Version | Text Only | Print | Product List | Glossary On
Versions: 1 2 3 4 5 6 7 8 9 10 11 12 13 14 15 16 17 18 19 20 21 22 23 24 25 26 27 28 29 30 31 32 33 34 35 36 37 38 39 40 41 42 43 44 45 46 47 48 49 50
000
ASUS43 KGLD 051808
RWRGLD

GOODLAND FORECAST AREA HOURLY WEATHER ROUNDUP
NATIONAL WEATHER SERVICE GOODLAND KS
1200 PM MDT SUN JUL 05 2015

...OFFICIAL OBSERVATIONS...

CITY           SKY/WX    TMP DP  RH WIND       PRES   REMARKS
GOODLAND KS    SUNNY     95  56  26 S15G22    29.87S
HILL CITY KS   SUNNY     99  64  31 S20G25    29.82F HX 101
IMPERIAL NEB   SUNNY     94  59  31 SE9       29.84S
MCCOOK NEB     SUNNY     94  63  35 S9        29.81F
AKRON CO       MOSUNNY   90  50  25 SW5       29.94S
BURLINGTON CO  SUNNY     96  50  20 S21G28    29.92S
LIMON CO       MOSUNNY   87  53  31 S12       30.00S
$$

...UNOFFICIAL OBSERVATIONS...

CITY           SKY/WX    TMP DP  RH WIND       PRES   REMARKS
COLBY KS       SUNNY     99  63  30 S16       29.86F HX 100
GOVE KS          N/A     97  32  10 MISG        N/A
NORTON KS      SUNNY     95  55  26 S15G21    29.80
SHARON SPRINGS   N/A     97  56  25 S23G35      N/A
KIT CARSON CO    N/A     94  56  27 MISG        N/A
YUMA CO          N/A     94  54  25 W8          N/A
$$


USA.gov is the U.S. government's official web portal to all federal, state and local government web resources and services.